Hermiston, OR

9:57 AM PST on February 08, 2016 (GMT -0800)
Hermiston Municipal

Weather History for KHRI - August, 2013

Change the Weather History Date:

Wednesday, August 14, 2013

  Actual Average Record
Temperature  
Mean Temperature 74 °F -  
Max Temperature 95 °F 88 °F 105 °F (1933)
Min Temperature 55 °F 58 °F 44 °F (1931)
Cooling Degree Days 9    
Growing Degree Days 24 (Base 50)    
Moisture  
Dew Point 48 °F    
Average Humidity 40    
Maximum Humidity 75    
Minimum Humidity 19    
Precipitation  
Precipitation 0.00 in - - ()
Sea Level Pressure  
Sea Level Pressure 29.84 in    
Wind  
Wind Speed 4 mph (WSW)    
Max Wind Speed 14 mph    
Max Gust Speed -    
Visibility 10 miles    
Events      
Averages and records for this station are not official NWS values.
T = Trace of Precipitation, MM = Missing Value Source: NWS Daily Summary

Daily Weather History Graph

Daily Weather History Graph

Search for Another Location

Airport or City:

Trip Planner

Search our weather history database for the weather conditions in past years. The results will help you decide how hot, cold, wet, or windy it might be!

Date:

Astronomy

Aug. 14, 2013 Rise Set
Actual Time 5:56 AM PDT 8:06 PM PDT
Civil Twilight 5:23 AM PDT 8:38 PM PDT
Nautical Twilight 4:43 AM PDT 9:18 PM PDT
Astronomical Twilight 3:57 AM PDT 10:03 PM PDT
Moon 2:27 PM PDT (8/14) No Moon Set
Length of Visible Light 15h 15m
Length of Day
14h 10m
First Quarter, 54% of the Moon is Illuminated
Aug 14
First Quarter
Aug 20
Full
Aug 28
Last Quarter
Sep 5
New
Sep 12
First Quarter

Hourly Weather History & Observations

Time (PDT) Temp. Dew Point Humidity Pressure Visibility Wind Dir Wind Speed Gust Speed Precip Events Conditions
12:53 AM 64.9 °F 46.9 °F 52% 29.87 in 10.0 mi WSW 4.6 mph - N/A   Clear
1:53 AM 61.0 °F 48.9 °F 64% 29.87 in 10.0 mi Calm Calm - N/A   Clear
2:53 AM 59.0 °F 51.1 °F 75% 29.88 in 10.0 mi SSE 3.5 mph - N/A   Clear
3:53 AM 59.0 °F 48.0 °F 67% 29.87 in 10.0 mi Calm Calm - N/A   Clear
4:53 AM 55.9 °F 46.9 °F 72% 29.87 in 10.0 mi Calm Calm - N/A   Clear
5:53 AM 57.0 °F 46.9 °F 69% 29.88 in 10.0 mi Calm Calm - N/A   Clear
6:53 AM 59.0 °F 48.0 °F 67% 29.89 in 10.0 mi Calm Calm - N/A   Clear
7:53 AM 71.1 °F 45.0 °F 39% 29.89 in 10.0 mi SSW 3.5 mph - N/A   Clear
8:53 AM 73.9 °F 45.0 °F 35% 29.90 in 10.0 mi Calm Calm - N/A   Clear
9:53 AM 78.1 °F 46.9 °F 33% 29.89 in 10.0 mi NNW 4.6 mph - N/A   Clear
10:53 AM 82.9 °F 48.9 °F 31% 29.88 in 10.0 mi WNW 6.9 mph - N/A   Clear
11:53 AM 87.1 °F 50.0 °F 28% 29.87 in 10.0 mi NW 8.1 mph - N/A   Clear
12:53 PM 87.1 °F 51.1 °F 29% 29.85 in 10.0 mi Variable 4.6 mph - N/A   Clear
1:53 PM 90.0 °F 50.0 °F 25% 29.83 in 10.0 mi NW 3.5 mph - N/A   Clear
2:53 PM 91.0 °F 46.9 °F 22% 29.81 in 10.0 mi West 5.8 mph - N/A   Clear
3:53 PM 93.9 °F 46.9 °F 20% 29.79 in 10.0 mi West 5.8 mph - N/A   Clear
4:53 PM 93.9 °F 46.9 °F 20% 29.78 in 10.0 mi Calm Calm - N/A   Clear
5:53 PM 93.9 °F 46.0 °F 19% 29.77 in 10.0 mi West 4.6 mph - N/A   Clear
6:53 PM 91.9 °F 44.1 °F 19% 29.76 in 10.0 mi West 3.5 mph - N/A   Clear
7:53 PM 86.0 °F 46.0 °F 25% 29.77 in 10.0 mi SW 5.8 mph - N/A   Clear
8:53 PM 84.0 °F 48.0 °F 28% 29.79 in 10.0 mi SW 11.5 mph - N/A   Clear
9:53 PM 77.0 °F 52.0 °F 42% 29.82 in 10.0 mi West 8.1 mph - N/A   Clear
10:53 PM 73.0 °F 46.9 °F 39% 29.85 in 10.0 mi SSW 9.2 mph - N/A   Clear
11:53 PM 73.9 °F 48.0 °F 40% 29.85 in 10.0 mi SSW 13.8 mph - N/A   Clear